[[{"header":{"parameterUnit":"m.s-1","parameterCategory":2,"la1":30.2991,"la2":30.254,"lo1":-89.0895,"lo2":-89.0444,"dy":0.0017,"dx":0.0017,"nx":28,"ny":28,"refTime":"2026-01-30T09:00:00:Z","depth":"0","parameterNumber":2,"parameterNumberName":"U-component_of_CURRENTS"},"data":[0,0,0,0,0,0,0,0,0,0,0,0,0,0,0,0,0,0,0,0,0,0,0,0,0,0,0,0,0,0,0,0,0,0,0,0,0,0,0,0,0,0,0,0,0,0,0,0,0,0,0,0,0,0,0,0,0,0,0.3784,0.3784,0,0.3773,0.3772,0.3772,0.374,0.3739,0.3739,0.3739,0.369,0.3689,0.3688,0,0,0,0,0,0,0,0,0,0,0,0,0,0.3793,0.3793,0.3784,0.3784,0.3784,0.3773,0.3772,0.3772,0.374,0.3739,0.3739,0.3738,0.369,0.3689,0.3688,0,0,0,0,0,0,0,0,0,0,0,0,0,0.3783,0.3793,0.3784,0.3769,0.3768,0.3773,0.3772,0.3772,0.374,0.3739,0.3739,0.3738,0.369,0.3689,0.3688,0.3691,0,0,0.3683,0.3683,0,0,0,0,0,0,0,0,0.3784,0.3782,0.3771,0.377,0.3769,0.376,0.3758,0.3744,0.374,0.3747,0.3739,0.3738,0.3712,0.3709,0.3704,0.3688,0.3686,0.3683,0.3682,0.3682,0.3681,0,0,0,0,0,0,0,0.3785,0.3783,0.3776,0.3771,0.377,0.3769,0.3766,0.3755,0.373,0.3746,0.3745,0.3749,0.3711,0.3705,0.3703,0.3686,0.3683,0.3682,0.3681,0.3681,0.3703,0.3704,0,0,0,0,0,0,0.3792,0.3784,0.3776,0.3776,0.3779,0.377,0.3766,0.3761,0.3731,0.3727,0.375,0.3748,0.3708,0.3704,0.3701,0.3729,0.3682,0.368,0.368,0.3701,0.3703,0.3705,0,0,0,0,0,0,0.3792,0.3791,0.3777,0.3783,0.3781,0.377,0.3764,0.3761,0.3761,0.3734,0.3729,0.3754,0.3708,0.3703,0.3702,0.3725,0.368,0.3678,0.37,0.3702,0.3704,0.3768,0,0,0,0,0,0,0.3793,0.3791,0.3793,0.3783,0.3781,0.3789,0.3765,0.3761,0.3766,0.3763,0.3736,0.3731,0.3707,0.3705,0.3701,0.3723,0.3677,0.3698,0.3701,0.3703,0.3764,0.3772,0.3778,0,0,0,0,0,0.3793,0.3795,0.3793,0.3793,0.3782,0.379,0.3789,0.3777,0.3767,0.3773,0.3757,0.3732,0.3719,0.3705,0.37,0.3722,0.3697,0.37,0.3703,0.376,0.377,0.3778,0,0,0,0,0,0,0.3804,0.3793,0.3789,0.3789,0.3796,0.3786,0.3791,0.3786,0.3778,0.3775,0.3745,0.3739,0.3751,0.373,0.3715,0.3738,0.3706,0.3709,0.3751,0.376,0.3767,0.3781,0.3676,0,0,0,0,0,0.3809,0.3802,0.3803,0.3805,0.3809,0.3804,0.3806,0.3802,0.3795,0.379,0.3771,0.3759,0.3761,0.3755,0.3748,0.3756,0.3767,0.377,0.3777,0.3783,0.3793,0.3837,0.385,0.3715,0.3715,0.3715,0,0,0.3813,0.3808,0.3805,0.3807,0.3807,0.3822,0.3802,0.3813,0.3824,0.3787,0.3791,0.3784,0.3771,0.3783,0.3786,0.3766,0.383,0.3788,0.3793,0.3799,0.3842,0.3855,0.3867,0.3718,0.3717,0.3717,0,0,0.3825,0.3818,0.3821,0.3829,0.384,0.384,0.3848,0.3846,0.3844,0.3854,0.3837,0.3848,0.3833,0.3836,0.3835,0.3881,0.3872,0.3877,0.3919,0.3962,0.3974,0.3984,0.4026,0.404,0.3876,0.3876,0.3876,0,0.384,0.3836,0.3828,0.3841,0.3852,0.3852,0.3871,0.3876,0.3873,0.3888,0.3864,0.3885,0.3864,0.3902,0.3911,0.3898,0.392,0.3884,0.3973,0.3983,0.3992,0.4033,0.4047,0.388,0.3879,0.3879,0.3879,0,0.3853,0.3858,0.3865,0.3878,0.3892,0.3907,0.3919,0.3935,0.3935,0.3944,0.398,0.3962,0.398,0.3974,0.395,0.401,0.4005,0.3981,0.395,0.401,0.4049,0.4062,0.3885,0.3883,0.3882,0.3881,0,0,0.3871,0.3873,0.3877,0.3886,0.3911,0.3922,0.3959,0.3994,0.403,0.4033,0.4079,0.408,0.4083,0.4083,0.4066,0.4088,0.4165,0.406,0.4061,0.4103,0.4269,0.4293,0.4309,0.4158,0.416,0.4162,0.4274,0,0.389,0.3905,0.3909,0.3939,0.3951,0.3973,0.4006,0.4043,0.4073,0.4118,0.413,0.4163,0.4123,0.4136,0.4159,0.4166,0.4202,0.4137,0.4204,0.4207,0.4221,0.4327,0.4347,0.4451,0.4287,0.4289,0.429,0,0.3907,0.3913,0.3932,0.3962,0.3972,0.3994,0.406,0.4094,0.4169,0.4201,0.4256,0.4262,0.431,0.4256,0.4325,0.4288,0.4289,0.4286,0.429,0.4299,0.4256,0.4363,0.4481,0.4514,0.4311,0.4309,0.4308,0,0.3908,0.3935,0.3943,0.3952,0.3988,0.4011,0.4044,0.4118,0.4171,0.4264,0.4317,0.4374,0.4413,0.443,0.4432,0.4386,0.4506,0.4441,0.4471,0.4472,0.4497,0.4497,0.4656,0.45,0.45,0.45,0.4499,0,0.392,0.3931,0.3939,0.3943,0.3977,0.4009,0.4072,0.4129,0.4228,0.4298,0.4357,0.4431,0.4457,0.4517,0.4496,0.4554,0.4571,0.4514,0.4518,0.4521,0.4521,0.4553,0.4556,0.4504,0.4503,0.4502,0.4501,0,0.3914,0.3918,0.3932,0.3958,0.3971,0.3997,0.4081,0.4124,0.4238,0.4337,0.4371,0.4505,0.4597,0.4625,0.4677,0.4654,0.4635,0.4692,0.4698,0.47,0.4729,0.4733,0.4631,0.4472,0.4746,0.4747,0.4749,0,0.3907,0.3906,0.3929,0.3928,0.3934,0.3979,0.4001,0.4117,0.4177,0.4373,0.4414,0.4563,0.4667,0.4799,0.4817,0.4854,0.4707,0.485,0.4756,0.4778,0.4786,0.4539,0.439,0.4818,0.482,0.4821,0.4823,0,0.3885,0.3889,0.3888,0.3889,0.3898,0.3923,0.3975,0.4039,0.4174,0.4291,0.4448,0.4565,0.4761,0.485,0.4935,0.4944,0.4754,0.4878,0.4911,0.4886,0.4618,0.4451,0.469,0.4835,0.4834,0.4833,0.4832,0.4832,0.3856,0.3843,0.3828,0.3825,0.3832,0.3833,0.3825,0.3924,0.4034,0.4185,0.4385,0.4573,0.4866,0.5024,0.4981,0.5059,0.484,0.5,0.5015,0.4764,0.4585,0.4854,0.4988,0.4987,0.4987,0.4987,0.4987,0,0.3779,0.376,0.3757,0.3722,0.368,0.3724,0.3761,0.3746,0.3824,0.4114,0.4273,0.4677,0.4896,0.5071,0.5297,0.5249,0.4934,0.5173,0.4882,0.4724,0.5042,0.5027,0.5163,0.5163,0.5163,0.5163,0.5163,0.5163,0.3729,0.3673,0.3662,0.356,0.3537,0.3435,0.3427,0.3463,0.3641,0.3904,0.4174,0.4438,0.504,0.5606,0.5716,0.5551,0.5154,0.5032,0.4846,0.5232,0.5216,0.52,0.5188,0.5357,0.5357,0.4358,0.4352,0.4348]},{"header":{"parameterUnit":"m.s-1","parameterCategory":2,"la1":30.2991,"la2":30.254,"lo1":-89.0895,"lo2":-89.0444,"dy":0.0017,"dx":0.0017,"nx":28,"ny":28,"refTime":"2026-01-30T09:00:00:Z","depth":"0","parameterNumber":3,"parameterNumberName":"V-component_of_CURRENTS"},"data":[0,0,0,0,0,0,0,0,0,0,0,0,0,0,0,0,0,0,0,0,0,0,0,0,0,0,0,0,0,0,0,0,0,0,0,0,0,0,0,0,0,0,0,0,0,0,0,0,0,0,0,0,0,0,0,0,0,0,-0.0052,-0.0053,0,-0.0102,-0.0103,-0.0103,-0.0154,-0.0154,-0.0155,-0.0155,-0.0226,-0.0227,-0.0229,0,0,0,0,0,0,0,0,0,0,0,0,0,-0.0078,-0.0077,-0.0052,-0.0053,-0.0053,-0.0102,-0.0103,-0.0104,-0.0154,-0.0154,-0.0155,-0.0155,-0.0225,-0.0227,-0.0229,0,0,0,0,0,0,0,0,0,0,0,0,0,-0.0093,-0.0077,-0.0052,-0.0082,-0.0085,-0.0102,-0.0103,-0.0104,-0.0154,-0.0154,-0.0155,-0.0156,-0.0225,-0.0227,-0.0229,-0.0228,0,0,-0.0236,-0.0237,0,0,0,0,0,0,0,0,-0.0092,-0.0092,-0.0077,-0.008,-0.0084,-0.012,-0.0138,-0.0146,-0.0153,-0.013,-0.0155,-0.0156,-0.019,-0.0195,-0.0206,-0.0232,-0.0235,-0.0236,-0.0237,-0.0238,-0.0239,0,0,0,0,0,0,0,-0.0091,-0.0091,-0.0074,-0.0078,-0.0081,-0.012,-0.0122,-0.014,-0.0158,-0.0132,-0.0135,-0.0137,-0.0193,-0.0204,-0.0208,-0.0236,-0.0236,-0.0238,-0.0239,-0.024,-0.0265,-0.0264,0,0,0,0,0,0,-0.0075,-0.0089,-0.0073,-0.0076,-0.0087,-0.0118,-0.0121,-0.011,-0.0157,-0.0164,-0.0136,-0.0139,-0.02,-0.0206,-0.0211,-0.0197,-0.0238,-0.024,-0.0241,-0.0266,-0.0265,-0.0264,0,0,0,0,0,0,-0.0075,-0.0072,-0.0071,-0.0083,-0.0085,-0.0116,-0.0104,-0.011,-0.0119,-0.016,-0.0168,-0.0138,-0.0201,-0.0208,-0.022,-0.02,-0.0241,-0.0243,-0.0266,-0.0265,-0.0265,-0.0178,0,0,0,0,0,0,-0.0075,-0.0072,-0.0061,-0.0081,-0.0084,-0.0066,-0.0103,-0.0111,-0.0118,-0.0122,-0.0164,-0.0171,-0.0202,-0.0216,-0.0222,-0.0204,-0.0245,-0.0267,-0.0266,-0.0265,-0.0182,-0.0174,-0.0168,0,0,0,0,0,-0.0076,-0.0047,-0.0059,-0.0058,-0.0065,-0.0064,-0.0069,-0.0097,-0.0117,-0.011,-0.0142,-0.017,-0.0213,-0.0217,-0.0224,-0.0206,-0.0268,-0.0266,-0.0265,-0.0185,-0.0176,-0.0168,0,0,0,0,0,0,-0.0054,-0.005,-0.0064,-0.0037,-0.0046,-0.0072,-0.0068,-0.0088,-0.0109,-0.0117,-0.016,-0.0169,-0.0175,-0.0202,-0.0205,-0.0212,-0.0246,-0.0245,-0.0182,-0.0174,-0.0167,-0.0143,-0.0246,0,0,0,0,0,-0.0043,-0.002,-0.0031,-0.0011,-0.0012,-0.004,-0.0045,-0.0062,-0.0083,-0.0093,-0.0122,-0.0153,-0.0175,-0.0182,-0.0208,-0.0205,-0.0244,-0.02,-0.0193,-0.0187,-0.0172,-0.022,-0.0216,-0.026,-0.026,-0.026,0,0,-0.0031,-0.0025,-0.0015,-0.0006,-0.0018,0.0001,-0.0045,-0.0043,-0.0031,-0.0096,-0.0091,-0.0131,-0.0171,-0.0172,-0.0177,-0.019,-0.0195,-0.0185,-0.0179,-0.0168,-0.0218,-0.0214,-0.021,-0.0259,-0.0259,-0.0259,0,0,0.0013,0.0011,0.0046,0.0048,0.0044,0.0031,0.0037,0.0017,0.0004,0.0002,-0.0045,-0.007,-0.0098,-0.0122,-0.0138,-0.0107,-0.0161,-0.0117,-0.0055,-0.0101,-0.0098,-0.0096,-0.014,-0.0142,-0.0108,-0.0108,-0.0108,0,0.0024,0.0072,0.0054,0.0088,0.01,0.0053,0.0092,0.0075,0.0051,0.0051,0.0016,-0.0033,-0.0072,-0.0072,-0.0065,-0.009,-0.0126,-0.0081,-0.0092,-0.009,-0.0089,-0.0135,-0.0138,-0.0103,-0.0104,-0.0104,-0.0105,0,0.0098,0.0131,0.0152,0.0184,0.0193,0.0217,0.0199,0.0193,0.0165,0.0148,0.0132,0.0067,0.0042,0.0021,-0.0012,-0.0016,-0.0048,-0.0082,-0.011,-0.0079,-0.013,-0.0135,-0.0097,-0.0099,-0.01,-0.0101,0,0,0.0135,0.0196,0.0201,0.0241,0.0249,0.0271,0.0284,0.0295,0.0318,0.0262,0.028,0.022,0.0176,0.0155,0.0099,0.0057,0.0024,0.0001,-0.0004,-0.0037,-0.0078,-0.0111,-0.012,-0.0014,-0.0014,-0.0015,-0.0116,0,0.0198,0.0295,0.03,0.0382,0.0432,0.0401,0.0425,0.0422,0.0404,0.0406,0.0321,0.0316,0.0231,0.0219,0.0162,0.0062,0.0014,0.0055,-0.0107,-0.0112,-0.014,-0.0126,-0.0138,-0.0231,-0.0122,-0.0123,-0.0123,0,0.0271,0.0331,0.043,0.0502,0.0519,0.0551,0.059,0.0612,0.0588,0.0572,0.0532,0.0464,0.0398,0.0315,0.0156,0.0185,0.0068,-0.0024,-0.0031,-0.0092,-0.0154,-0.0245,-0.0245,-0.0561,-0.0132,-0.0131,-0.0131,0,0.0332,0.0422,0.051,0.0535,0.06,0.0627,0.0656,0.0662,0.0709,0.0683,0.0698,0.0593,0.0551,0.0387,0.019,0.0174,0.0004,-0.0045,-0.0187,-0.0191,-0.0248,-0.0256,-0.0565,-0.0158,-0.0158,-0.0158,-0.0157,0,0.0408,0.0477,0.0546,0.0598,0.0702,0.071,0.0811,0.0815,0.0844,0.0919,0.0796,0.0815,0.0567,0.0434,0.0235,0.0014,0.0034,-0.017,-0.0217,-0.0219,-0.0222,-0.0537,-0.0735,-0.0162,-0.0161,-0.016,-0.0159,0,0.0467,0.0508,0.0623,0.0708,0.0741,0.0818,0.0931,0.1005,0.1006,0.1091,0.1088,0.0985,0.081,0.0547,0.0285,0.0092,-0.0336,-0.0214,-0.0198,-0.0241,-0.0666,-0.0857,-0.1237,-0.143,-0.0385,-0.0386,-0.0388,0,0.051,0.0577,0.0713,0.0791,0.0835,0.0949,0.1034,0.1085,0.1183,0.1208,0.1264,0.1114,0.1056,0.0648,0.0261,-0.0098,-0.0409,-0.0348,-0.0384,-0.0691,-0.0941,-0.1091,-0.1236,-0.0432,-0.0434,-0.0435,-0.0436,0,0.0599,0.0643,0.0743,0.0904,0.1013,0.1153,0.1281,0.1385,0.1448,0.1513,0.1575,0.1525,0.1118,0.0764,0.0247,-0.0032,-0.0633,-0.0383,-0.0714,-0.1014,-0.1187,-0.1391,-0.0369,-0.0446,-0.0445,-0.0444,-0.0444,-0.0443,0.0665,0.0751,0.088,0.1034,0.1168,0.1341,0.148,0.1622,0.1787,0.1917,0.1838,0.184,0.1258,0.0558,0.0111,-0.0709,-0.0748,-0.0939,-0.1147,-0.1268,-0.1469,-0.0464,-0.0586,-0.0585,-0.0585,-0.0585,-0.0585,0,0.0754,0.0852,0.1002,0.1191,0.1354,0.1405,0.1637,0.179,0.2006,0.2137,0.22,0.1905,0.1195,0.0429,-0.0653,-0.1299,-0.1587,-0.1698,-0.1935,-0.2048,-0.1154,-0.1167,-0.1404,-0.1404,-0.1404,-0.1403,-0.1403,-0.1403,0.0803,0.0959,0.1038,0.1313,0.145,0.1686,0.1833,0.205,0.2222,0.2372,0.238,0.2314,0.1659,-0.0306,-0.1697,-0.2038,-0.2606,-0.2736,-0.3011,-0.2411,-0.2355,-0.2303,-0.2362,-0.2845,-0.2847,-0.3816,-0.3826,-0.3834]}],[{"header":{"parameterUnit":"m.s-1","parameterCategory":2,"la1":30.2991,"la2":30.254,"lo1":-89.0895,"lo2":-89.0444,"dy":0.0017,"dx":0.0017,"nx":28,"ny":28,"refTime":"2026-01-30T09:00:00:Z","depth":"2","parameterNumber":2,"parameterNumberName":"U-component_of_CURRENTS"},"data":[0,0,0,0,0,0,0,0,0,0,0,0,0,0,0,0,0,0,0,0,0,0,0,0,0,0,0,0,0,0,0,0,0,0,0,0,0,0,0,0,0,0,0,0,0,0,0,0,0,0,0,0,0,0,0,0,0,0,0.3749,0.3749,0,0.3737,0.3737,0.3736,0.3705,0.3705,0.3705,0.3704,0.3657,0.3656,0.3655,0,0,0,0,0,0,0,0,0,0,0,0,0,0.3762,0.3761,0.3749,0.3749,0.3749,0.3737,0.3737,0.3736,0.3705,0.3705,0.3705,0.3704,0.3657,0.3656,0.3655,0,0,0,0,0,0,0,0,0,0,0,0,0,0.3751,0.3761,0.3749,0.3735,0.3734,0.3737,0.3737,0.3736,0.3705,0.3705,0.3704,0.3704,0.3657,0.3656,0.3654,0.3657,0,0,0.365,0.365,0,0,0,0,0,0,0,0,0.3751,0.375,0.3737,0.3736,0.3735,0.3725,0.3724,0.3709,0.3706,0.3713,0.3704,0.3704,0.3679,0.3675,0.367,0.3654,0.3652,0.365,0.3649,0.3649,0.3648,0,0,0,0,0,0,0,0.3752,0.375,0.3741,0.3737,0.3736,0.3735,0.3732,0.3721,0.3696,0.3712,0.3711,0.3715,0.3677,0.3672,0.3669,0.3652,0.365,0.3649,0.3648,0.3647,0.3669,0.3671,0,0,0,0,0,0,0.376,0.3751,0.3741,0.3741,0.3746,0.3736,0.3732,0.3726,0.3697,0.3693,0.3715,0.3713,0.3674,0.3671,0.3667,0.3695,0.3649,0.3647,0.3646,0.3668,0.367,0.3671,0,0,0,0,0,0,0.376,0.3759,0.3742,0.3749,0.3747,0.3736,0.3729,0.3726,0.3727,0.37,0.3695,0.372,0.3674,0.3669,0.3669,0.3692,0.3647,0.3645,0.3666,0.3668,0.367,0.3734,0,0,0,0,0,0,0.376,0.3758,0.376,0.3749,0.3747,0.3753,0.373,0.3726,0.3732,0.3729,0.3703,0.3697,0.3673,0.3671,0.3668,0.3689,0.3644,0.3664,0.3667,0.367,0.373,0.3738,0.3745,0,0,0,0,0,0.376,0.3762,0.376,0.3759,0.3748,0.3754,0.3753,0.3741,0.3733,0.3739,0.3723,0.3698,0.3686,0.3671,0.3666,0.3688,0.3663,0.3666,0.3669,0.3727,0.3736,0.3745,0,0,0,0,0,0,0.3773,0.376,0.3756,0.3756,0.3761,0.375,0.3756,0.3751,0.3744,0.3741,0.3711,0.3705,0.3717,0.3697,0.3681,0.3705,0.3673,0.3675,0.3718,0.3727,0.3734,0.3748,0.3643,0,0,0,0,0,0.3778,0.377,0.3769,0.3771,0.3775,0.3769,0.3772,0.3767,0.376,0.3756,0.3737,0.3725,0.3727,0.3721,0.3715,0.3722,0.3733,0.3736,0.3743,0.375,0.3759,0.3803,0.3815,0.3682,0.3682,0.3682,0,0,0.3782,0.3776,0.3772,0.3773,0.3774,0.3787,0.3768,0.3778,0.379,0.3753,0.3757,0.375,0.3737,0.3749,0.3752,0.3732,0.3796,0.3754,0.3759,0.3765,0.3808,0.3821,0.3832,0.3684,0.3683,0.3683,0,0,0.3794,0.3786,0.3789,0.3796,0.3806,0.3806,0.3814,0.3812,0.381,0.382,0.3803,0.3815,0.38,0.3802,0.3801,0.3847,0.3837,0.3843,0.3885,0.3927,0.3939,0.3949,0.3991,0.4004,0.3842,0.3842,0.3842,0,0.381,0.3804,0.3795,0.3808,0.3818,0.3819,0.3837,0.3841,0.3839,0.3853,0.383,0.3851,0.383,0.3867,0.3876,0.3864,0.3886,0.385,0.3938,0.3948,0.3957,0.3997,0.4011,0.3846,0.3845,0.3845,0.3844,0,0.3822,0.3826,0.3833,0.3844,0.3858,0.3873,0.3884,0.39,0.39,0.3909,0.3945,0.3927,0.3945,0.394,0.3915,0.3975,0.397,0.3946,0.3915,0.3975,0.4013,0.4026,0.385,0.3849,0.3848,0.3847,0,0,0.3841,0.384,0.3844,0.3852,0.3877,0.3887,0.3923,0.3958,0.3994,0.3997,0.4043,0.4043,0.4048,0.4047,0.403,0.4052,0.4129,0.4025,0.4026,0.4068,0.4232,0.4254,0.427,0.4122,0.4124,0.4126,0.4236,0,0.3859,0.3873,0.3875,0.3904,0.3916,0.3937,0.397,0.4006,0.4036,0.4081,0.4092,0.4126,0.4086,0.41,0.4123,0.4129,0.4165,0.4101,0.4167,0.4169,0.4183,0.4287,0.3813,0.3874,0.4249,0.4251,0.4253,0,0.3876,0.388,0.3898,0.3927,0.3937,0.3958,0.4023,0.4057,0.4131,0.4164,0.4218,0.4224,0.4272,0.4219,0.4287,0.425,0.4252,0.4249,0.4253,0.426,0.4217,0.3873,0.3884,0.4275,0.4273,0.4271,0.427,0,0.3878,0.3902,0.391,0.3918,0.3952,0.3975,0.4008,0.4082,0.4134,0.4226,0.4279,0.4336,0.4374,0.4392,0.4394,0.4348,0.4466,0.4402,0.443,0.4431,0.4035,0.3999,0.446,0.446,0.446,0.446,0.4459,0,0.3889,0.39,0.3906,0.391,0.3943,0.3974,0.4037,0.4094,0.4191,0.4261,0.4319,0.4392,0.4419,0.4478,0.4457,0.4513,0.4531,0.4473,0.4476,0.4048,0.4013,0.4354,0.434,0.4464,0.4463,0.4462,0.4461,0,0.3884,0.3887,0.3899,0.3925,0.3938,0.3963,0.4047,0.4089,0.4202,0.43,0.4335,0.4467,0.4557,0.4585,0.4636,0.4612,0.4641,0.4648,0.416,0.4107,0.4555,0.4543,0.4696,0.4698,0.47,0.4701,0.4702,0,0.3877,0.3876,0.3897,0.3895,0.3902,0.3946,0.3968,0.4083,0.4143,0.4337,0.4377,0.4524,0.4604,0.4732,0.4622,0.4622,0.473,0.4288,0.4128,0.46,0.4587,0.4572,0.4558,0.3607,0.36,0.3593,0.3588,0,0.3856,0.3859,0.3857,0.3857,0.3866,0.389,0.3942,0.4005,0.414,0.423,0.4385,0.4477,0.4555,0.4349,0.4381,0.4322,0.4252,0.4171,0.4761,0.3669,0.3596,0.3577,0.3593,0.3531,0.3537,0.3541,0.3544,0.3546,0.3827,0.3813,0.3797,0.3794,0.3801,0.3801,0.3793,0.3799,0.3873,0.3873,0.4159,0.4092,0.4114,0.3899,0.3803,0.3707,0.4006,0.3828,0.3836,0.3853,0.3756,0.3695,0.3629,0.3635,0.364,0.3645,0.3649,0,0.3698,0.373,0.3726,0.3691,0.3593,0.3693,0.3729,0.3589,0.3516,0.3556,0.357,0.3279,0.316,0.3221,0.2932,0.3003,0.2845,0.2956,0.2654,0.2715,0.2768,0.2604,0.2177,0.2173,0.2169,0.2166,0,0,0.3635,0.3552,0.3541,0.3414,0.3438,0.3252,0.3241,0.3072,0.2998,0.2807,0.2721,0.2852,0.3075,0.2518,0.2483,0.2284,0.2478,0.2205,0.3375,0.3074,0.3121,0.3261,0.3081,0,0,0,0,0]},{"header":{"parameterUnit":"m.s-1","parameterCategory":2,"la1":30.2991,"la2":30.254,"lo1":-89.0895,"lo2":-89.0444,"dy":0.0017,"dx":0.0017,"nx":28,"ny":28,"refTime":"2026-01-30T09:00:00:Z","depth":"2","parameterNumber":3,"parameterNumberName":"V-component_of_CURRENTS"},"data":[0,0,0,0,0,0,0,0,0,0,0,0,0,0,0,0,0,0,0,0,0,0,0,0,0,0,0,0,0,0,0,0,0,0,0,0,0,0,0,0,0,0,0,0,0,0,0,0,0,0,0,0,0,0,0,0,0,0,-0.0018,-0.0019,0,-0.0067,-0.0068,-0.0069,-0.0119,-0.012,-0.012,-0.0121,-0.0191,-0.0192,-0.0194,0,0,0,0,0,0,0,0,0,0,0,0,0,-0.0046,-0.0044,-0.0018,-0.0019,-0.0019,-0.0067,-0.0068,-0.0069,-0.0119,-0.012,-0.012,-0.0121,-0.0191,-0.0192,-0.0194,0,0,0,0,0,0,0,0,0,0,0,0,0,-0.006,-0.0044,-0.0018,-0.0048,-0.0051,-0.0067,-0.0068,-0.0069,-0.0119,-0.012,-0.0121,-0.0121,-0.019,-0.0192,-0.0194,-0.0193,0,0,-0.0201,-0.0202,0,0,0,0,0,0,0,0,-0.0059,-0.0059,-0.0044,-0.0046,-0.005,-0.0086,-0.0104,-0.0111,-0.0119,-0.0096,-0.0121,-0.0122,-0.0156,-0.0161,-0.0171,-0.0196,-0.0199,-0.0201,-0.0202,-0.0203,-0.0204,0,0,0,0,0,0,0,-0.0058,-0.0058,-0.004,-0.0044,-0.0048,-0.0086,-0.0088,-0.0106,-0.0123,-0.0098,-0.0101,-0.0103,-0.0158,-0.0169,-0.0173,-0.02,-0.0201,-0.0203,-0.0204,-0.0205,-0.0229,-0.0229,0,0,0,0,0,0,-0.0042,-0.0056,-0.0039,-0.0041,-0.0054,-0.0084,-0.0087,-0.0076,-0.0123,-0.013,-0.0102,-0.0105,-0.0165,-0.0171,-0.0176,-0.0162,-0.0203,-0.0205,-0.0206,-0.023,-0.0229,-0.0229,0,0,0,0,0,0,-0.0042,-0.0039,-0.0037,-0.0049,-0.0051,-0.0082,-0.0069,-0.0076,-0.0085,-0.0125,-0.0133,-0.0104,-0.0166,-0.0173,-0.0185,-0.0166,-0.0206,-0.0208,-0.0231,-0.023,-0.0229,-0.0143,0,0,0,0,0,0,-0.0043,-0.0039,-0.0028,-0.0047,-0.005,-0.0032,-0.0069,-0.0076,-0.0084,-0.0088,-0.0129,-0.0137,-0.0167,-0.0182,-0.0187,-0.0169,-0.021,-0.0231,-0.023,-0.0229,-0.0147,-0.014,-0.0133,0,0,0,0,0,-0.0043,-0.0014,-0.0026,-0.0025,-0.0032,-0.003,-0.0035,-0.0062,-0.0083,-0.0076,-0.0108,-0.0136,-0.0178,-0.0182,-0.0189,-0.0172,-0.0232,-0.0231,-0.0229,-0.015,-0.0141,-0.0133,0,0,0,0,0,0,-0.0022,-0.0017,-0.0031,-0.0003,-0.0012,-0.0038,-0.0034,-0.0054,-0.0075,-0.0082,-0.0126,-0.0135,-0.0141,-0.0167,-0.0171,-0.0177,-0.021,-0.021,-0.0148,-0.014,-0.0133,-0.0109,-0.0211,0,0,0,0,0,-0.001,0.0012,0.0002,0.0022,0.0022,-0.0007,-0.0012,-0.0029,-0.0049,-0.0059,-0.0088,-0.0119,-0.014,-0.0148,-0.0173,-0.017,-0.0209,-0.0165,-0.0158,-0.0152,-0.0137,-0.0185,-0.0181,-0.0224,-0.0224,-0.0224,0,0,0.0001,0.0007,0.0018,0.0027,0.0015,0.0035,-0.0011,-0.0009,0.0003,-0.0062,-0.0057,-0.0097,-0.0136,-0.0137,-0.0142,-0.0155,-0.0161,-0.015,-0.0144,-0.0133,-0.0183,-0.0179,-0.0175,-0.0223,-0.0223,-0.0223,0,0,0.0045,0.0043,0.0079,0.008,0.0077,0.0064,0.007,0.005,0.0037,0.0035,-0.0011,-0.0036,-0.0064,-0.0087,-0.0103,-0.0072,-0.0127,-0.0082,-0.0021,-0.0067,-0.0064,-0.0062,-0.0106,-0.0108,-0.0073,-0.0073,-0.0073,0,0.0055,0.0104,0.0086,0.012,0.0133,0.0086,0.0125,0.0108,0.0085,0.0084,0.0049,0.0,-0.0038,-0.0038,-0.0031,-0.0055,-0.0092,-0.0047,-0.0058,-0.0056,-0.0055,-0.0102,-0.0105,-0.0069,-0.0069,-0.007,-0.007,0,0.013,0.0163,0.0184,0.0216,0.0225,0.0249,0.0231,0.0225,0.0197,0.0181,0.0164,0.01,0.0076,0.0054,0.0021,0.0017,-0.0015,-0.0048,-0.0076,-0.0046,-0.0097,-0.0102,-0.0063,-0.0064,-0.0066,-0.0067,0,0,0.0166,0.0227,0.0233,0.0272,0.0281,0.0303,0.0316,0.0328,0.035,0.0294,0.0312,0.0252,0.0208,0.0187,0.0132,0.0089,0.0056,0.0034,0.0029,-0.0004,-0.0046,-0.008,-0.009,0.0019,0.0018,0.0018,-0.0084,0,0.0228,0.0326,0.0331,0.0413,0.0464,0.0432,0.0457,0.0454,0.0436,0.0437,0.0353,0.0347,0.0263,0.0251,0.0194,0.0094,0.0046,0.0087,-0.0075,-0.0079,-0.0108,-0.0095,-0.0068,-0.0158,-0.009,-0.0091,-0.0092,0,0.0302,0.0362,0.046,0.0533,0.055,0.0581,0.062,0.0642,0.0619,0.0602,0.0562,0.0494,0.0428,0.0345,0.0187,0.0216,0.0099,0.0008,0.0001,-0.0061,-0.0123,-0.0178,-0.0171,-0.0101,-0.0101,-0.01,-0.0099,0,0.0362,0.0452,0.0541,0.0565,0.063,0.0657,0.0686,0.0692,0.0738,0.0712,0.0727,0.0622,0.0579,0.0416,0.0219,0.0204,0.0033,-0.0014,-0.0157,-0.0161,-0.0184,-0.019,-0.0128,-0.0127,-0.0127,-0.0127,-0.0127,0,0.0437,0.0506,0.0576,0.0628,0.0732,0.074,0.084,0.0843,0.0872,0.0946,0.0824,0.0841,0.0594,0.0461,0.0264,0.0043,0.0063,-0.014,-0.0187,-0.0155,-0.0156,-0.0143,-0.0143,-0.0131,-0.013,-0.0129,-0.0129,0,0.0496,0.0537,0.0652,0.0737,0.0769,0.0847,0.0959,0.1032,0.1033,0.1117,0.1113,0.101,0.0834,0.0573,0.0311,0.0119,-0.01,-0.0186,-0.0131,-0.017,-0.0278,-0.0272,-0.0354,-0.0356,-0.0357,-0.0359,-0.036,0,0.0539,0.0605,0.0741,0.0819,0.0863,0.0977,0.1061,0.1111,0.1208,0.1233,0.1287,0.1136,0.1071,0.0663,0.029,-0.0066,-0.0113,-0.0282,-0.0311,-0.0262,-0.03,-0.0292,-0.0284,-0.0313,-0.0314,-0.0314,-0.0315,0,0.0627,0.0671,0.077,0.0931,0.1039,0.1179,0.1306,0.141,0.1472,0.1528,0.1587,0.153,0.1134,0.0774,0.026,0.0019,-0.0227,-0.0305,-0.0266,-0.0255,-0.0231,-0.0266,-0.0258,-0.032,-0.032,-0.0319,-0.0319,-0.0319,0.0692,0.0778,0.0907,0.1061,0.1194,0.1366,0.1504,0.1618,0.1772,0.1846,0.1789,0.1678,0.1271,0.0608,0.0195,-0.0259,-0.0242,-0.0409,-0.0404,-0.04,-0.0372,-0.0351,-0.0458,-0.0458,-0.0459,-0.0459,-0.0459,0,0.0795,0.0879,0.1028,0.1216,0.1383,0.143,0.166,0.1782,0.1953,0.1962,0.1968,0.1578,0.1137,0.0666,0.0003,-0.0377,-0.0395,-0.0507,-0.0447,-0.0439,-0.0433,-0.0405,-0.0502,-0.0503,-0.0504,-0.0505,0,0,0.0848,0.1007,0.1086,0.1354,0.148,0.1708,0.1854,0.1993,0.206,0.209,0.1992,0.1791,0.125,0.0758,0.0238,-0.0133,-0.0195,-0.0206,-0.0133,0.0007,0.0018,-0.0344,-0.0289,0,0,0,0,0]}],[{"header":{"parameterUnit":"m.s-1","parameterCategory":2,"la1":30.2991,"la2":30.254,"lo1":-89.0895,"lo2":-89.0444,"dy":0.0017,"dx":0.0017,"nx":28,"ny":28,"refTime":"2026-01-30T09:00:00:Z","depth":"4","parameterNumber":2,"parameterNumberName":"U-component_of_CURRENTS"},"data":[0,0,0,0,0,0,0,0,0,0,0,0,0,0,0,0,0,0,0,0,0,0,0,0,0,0,0,0,0,0,0,0,0,0,0,0,0,0,0,0,0,0,0,0,0,0,0,0,0,0,0,0,0,0,0,0,0,0,0.1879,0.188,0,0.1969,0.197,0.1971,0.2032,0.2033,0.2033,0.2034,0.2126,0.2128,0.213,0,0,0,0,0,0,0,0,0,0,0,0,0,0.1744,0.1746,0.1879,0.188,0.1882,0.1969,0.197,0.1971,0.2032,0.2033,0.2033,0.2034,0.2126,0.2128,0.213,0,0,0,0,0,0,0,0,0,0,0,0,0,0.1813,0.1747,0.1879,0.1924,0.193,0.1969,0.197,0.1971,0.2032,0.2033,0.2034,0.2035,0.2125,0.2128,0.213,0.2127,0,0,0.2139,0.214,0,0,0,0,0,0,0,0,0.1809,0.1818,0.1916,0.1921,0.1927,0.1992,0.1956,0.2024,0.2031,0.199,0.2034,0.2035,0.2083,0.2089,0.21,0.2131,0.2135,0.2139,0.2141,0.2142,0.2143,0,0,0,0,0,0,0,0.1804,0.1814,0.1912,0.1918,0.1924,0.1935,0.1946,0.1969,0.2028,0.1994,0.1999,0.2013,0.2085,0.2097,0.2103,0.2137,0.2139,0.2141,0.2143,0.2144,0.2303,0.2305,0,0,0,0,0,0,0.1798,0.181,0.1909,0.1915,0.1872,0.1937,0.1949,0.1968,0.2028,0.2038,0.2012,0.2015,0.2092,0.2099,0.2106,0.2227,0.2142,0.2144,0.2146,0.23,0.2303,0.2306,0,0,0,0,0,0,0.1795,0.1806,0.1906,0.1866,0.188,0.1939,0.196,0.197,0.2026,0.2042,0.2052,0.2063,0.2093,0.2102,0.2173,0.2226,0.2146,0.2148,0.2297,0.2301,0.2305,0.239,0,0,0,0,0,0,0.1791,0.1805,0.1836,0.1866,0.1882,0.1958,0.196,0.1971,0.2031,0.2038,0.2088,0.2095,0.2095,0.2169,0.2176,0.2228,0.215,0.2294,0.2299,0.2303,0.2384,0.2396,0.2407,0,0,0,0,0,0.1786,0.1817,0.1837,0.1851,0.1917,0.196,0.197,0.2012,0.2033,0.2065,0.2107,0.2096,0.2204,0.2173,0.218,0.2235,0.2291,0.2297,0.2303,0.2379,0.2394,0.2407,0,0,0,0,0,0,0.1775,0.1828,0.185,0.1898,0.1941,0.1972,0.2013,0.2037,0.2095,0.2117,0.2127,0.2137,0.222,0.2217,0.2182,0.2296,0.2247,0.2254,0.2302,0.2317,0.2328,0.2332,0.2152,0,0,0,0,0,0.1786,0.1831,0.1873,0.1918,0.1944,0.1987,0.2019,0.2049,0.2093,0.2121,0.2157,0.2199,0.2242,0.2272,0.2304,0.2363,0.2364,0.2405,0.2417,0.2426,0.2436,0.2486,0.2503,0.2325,0.2325,0.2325,0,0,0.1795,0.1832,0.1859,0.192,0.196,0.2006,0.201,0.2074,0.2123,0.2121,0.2214,0.2245,0.2268,0.234,0.2376,0.2349,0.2479,0.2434,0.2442,0.2446,0.2494,0.2511,0.2526,0.2329,0.2328,0.2328,0,0,0.182,0.1871,0.1913,0.1954,0.2025,0.2051,0.2079,0.214,0.2185,0.2264,0.2281,0.2347,0.241,0.2439,0.2457,0.2552,0.254,0.257,0.2631,0.2681,0.2695,0.2708,0.2733,0.2747,0.2574,0.2574,0.2574,0,0.1831,0.1889,0.1932,0.1981,0.2026,0.2077,0.2129,0.2177,0.2256,0.2303,0.231,0.2436,0.2455,0.254,0.2576,0.2578,0.2598,0.2574,0.2695,0.2707,0.2719,0.2741,0.2756,0.2579,0.2578,0.2577,0.2577,0,0.1874,0.1937,0.1969,0.205,0.2101,0.2159,0.2223,0.2292,0.2353,0.2399,0.2516,0.2551,0.2625,0.2644,0.264,0.2742,0.2726,0.2703,0.2655,0.2742,0.276,0.2774,0.2585,0.2584,0.2582,0.2581,0,0,0.1846,0.1975,0.1989,0.2043,0.2146,0.2187,0.2285,0.2378,0.2458,0.2539,0.2637,0.2717,0.2752,0.2776,0.279,0.2831,0.2927,0.2812,0.2812,0.2829,0.3034,0.284,0.2836,0.2933,0.2936,0.2938,0.3013,0,0.187,0.1968,0.2031,0.2133,0.2189,0.2274,0.2358,0.2454,0.2544,0.2651,0.2713,0.2814,0.2797,0.2853,0.2896,0.2928,0.2969,0.2908,0.2954,0.2955,0.2765,0.2847,0.2948,0.3023,0.3026,0.3029,0.303,0,0.188,0.1952,0.2053,0.2187,0.2222,0.2296,0.2447,0.2532,0.2681,0.2758,0.2867,0.292,0.302,0.2983,0.3082,0.3051,0.3057,0.3062,0.3065,0.2861,0.2786,0.2919,0.3055,0.3053,0.3051,0.3049,0.3048,0,0.1822,0.1961,0.2048,0.2093,0.2249,0.2326,0.242,0.2573,0.2668,0.2843,0.2929,0.3043,0.3121,0.3158,0.3179,0.3152,0.3261,0.3216,0.3044,0.3031,0.3144,0.3129,0.3281,0.3281,0.328,0.328,0.328,0,0.1798,0.1871,0.2038,0.2083,0.2202,0.232,0.2464,0.2577,0.2749,0.2855,0.2987,0.3069,0.3174,0.3238,0.3231,0.3179,0.3308,0.3068,0.3043,0.3178,0.3166,0.3153,0.3137,0.3283,0.3282,0.3282,0.3281,0,0.1716,0.1825,0.1934,0.2114,0.218,0.2268,0.2483,0.2571,0.2756,0.2898,0.2961,0.3131,0.3203,0.3267,0.3332,0.3228,0.3207,0.3155,0.3307,0.3287,0.293,0.2919,0.2964,0.2958,0.2953,0.2949,0.2945,0,0.1678,0.173,0.1935,0.2003,0.2095,0.2249,0.2344,0.2554,0.2645,0.2896,0.2934,0.3091,0.3168,0.3103,0.3187,0.3167,0.3121,0.3092,0.2993,0.293,0.2902,0.2898,0.2894,0.2937,0.2935,0.2934,0.2933,0,0.1606,0.1698,0.1787,0.1927,0.2041,0.2156,0.231,0.2366,0.2586,0.2776,0.2836,0.2873,0.2947,0.2973,0.2988,0.2964,0.3099,0.3036,0.3046,0.2952,0.2897,0.2874,0.2875,0.2915,0.2917,0.2919,0.292,0,0.1554,0.1593,0.1719,0.1825,0.1955,0.2013,0.212,0.2217,0.2333,0.2597,0.2608,0.276,0.2915,0.2869,0.2882,0.2849,0.2789,0.2678,0.2705,0.2726,0.261,0.2502,0.2388,0,0,0,0,0,0.1488,0.1514,0.1604,0.1703,0.1818,0.1891,0.2067,0.2172,0.2384,0.2356,0.2478,0.2527,0.2554,0.2638,0.2551,0.2772,0.28,0.2658,0.2687,0.2815,0.2836,0.272,0,0,0,0,0,0,0.1443,0.1518,0.1553,0.1571,0.1606,0.1711,0.181,0.1955,0.1957,0.2176,0.2201,0.2362,0.2423,0.2561,0.2494,0.2518,0.2481,0.2762,0.2755,0.2803,0.2822,0.2839,0.2727,0,0,0,0,0]},{"header":{"parameterUnit":"m.s-1","parameterCategory":2,"la1":30.2991,"la2":30.254,"lo1":-89.0895,"lo2":-89.0444,"dy":0.0017,"dx":0.0017,"nx":28,"ny":28,"refTime":"2026-01-30T09:00:00:Z","depth":"4","parameterNumber":3,"parameterNumberName":"V-component_of_CURRENTS"},"data":[0,0,0,0,0,0,0,0,0,0,0,0,0,0,0,0,0,0,0,0,0,0,0,0,0,0,0,0,0,0,0,0,0,0,0,0,0,0,0,0,0,0,0,0,0,0,0,0,0,0,0,0,0,0,0,0,0,0,0.0384,0.0383,0,0.0337,0.0336,0.0336,0.0311,0.0311,0.0311,0.0311,0.0263,0.0262,0.026,0,0,0,0,0,0,0,0,0,0,0,0,0,0.0401,0.0401,0.0384,0.0383,0.0383,0.0337,0.0336,0.0336,0.0311,0.0311,0.0311,0.0311,0.0263,0.0262,0.026,0,0,0,0,0,0,0,0,0,0,0,0,0,0.0377,0.0401,0.0384,0.0365,0.0363,0.0337,0.0336,0.0336,0.0311,0.0311,0.0311,0.0311,0.0264,0.0262,0.026,0.0248,0,0,0.0254,0.0253,0,0,0,0,0,0,0,0,0.0379,0.0377,0.0369,0.0367,0.0364,0.033,0.0325,0.0306,0.0311,0.033,0.0311,0.0311,0.0286,0.0282,0.0272,0.0246,0.0244,0.0254,0.0253,0.0252,0.0251,0,0,0,0,0,0,0,0.0381,0.0378,0.0365,0.0368,0.0365,0.0342,0.0339,0.0321,0.0308,0.0329,0.0327,0.0322,0.0284,0.0274,0.0271,0.0243,0.0254,0.0252,0.0251,0.025,0.0201,0.0201,0,0,0,0,0,0,0.039,0.038,0.0366,0.0363,0.0372,0.0342,0.0338,0.0341,0.0308,0.0303,0.0322,0.0321,0.0277,0.0273,0.0269,0.0266,0.0252,0.025,0.0249,0.0201,0.0201,0.0201,0,0,0,0,0,0,0.0391,0.039,0.0368,0.0371,0.0366,0.0342,0.0344,0.034,0.0335,0.0304,0.0299,0.0324,0.0277,0.0272,0.0259,0.0263,0.0249,0.0247,0.0201,0.0201,0.0201,0.025,0,0,0,0,0,0,0.0392,0.039,0.0398,0.0372,0.0367,0.0362,0.0344,0.0339,0.0333,0.0331,0.0303,0.0298,0.0277,0.0262,0.0257,0.026,0.0246,0.0201,0.0201,0.0201,0.0249,0.0252,0.0254,0,0,0,0,0,0.0392,0.0405,0.0399,0.0397,0.0377,0.0362,0.0358,0.0339,0.0333,0.0335,0.0314,0.0299,0.0256,0.026,0.0254,0.0257,0.0202,0.0201,0.0201,0.0248,0.0251,0.0254,0,0,0,0,0,0,0.0416,0.0403,0.0395,0.0403,0.0388,0.0359,0.036,0.0345,0.033,0.0331,0.03,0.0294,0.0282,0.0262,0.0267,0.024,0.0225,0.0223,0.0262,0.0265,0.0268,0.0284,0.0244,0,0,0,0,0,0.0425,0.0432,0.0411,0.0417,0.0413,0.0388,0.038,0.0368,0.0349,0.0342,0.0321,0.0297,0.0274,0.0265,0.0243,0.0233,0.0199,0.0228,0.0231,0.0233,0.0241,0.019,0.0189,0.02,0.02,0.02,0,0,0.0436,0.0429,0.0434,0.0423,0.041,0.0412,0.0384,0.0379,0.0378,0.034,0.0336,0.0307,0.0273,0.0259,0.0252,0.0245,0.0211,0.0233,0.0236,0.0242,0.0189,0.0188,0.0187,0.0199,0.0199,0.0199,0,0,0.0462,0.0457,0.0472,0.0463,0.0449,0.0434,0.0437,0.0413,0.0401,0.0391,0.036,0.0335,0.0307,0.0279,0.0262,0.0265,0.0227,0.0258,0.0287,0.0237,0.0236,0.0235,0.0187,0.0181,0.026,0.026,0.0261,0,0.0477,0.0493,0.0472,0.0481,0.0484,0.045,0.0466,0.0446,0.042,0.0415,0.0399,0.0345,0.0315,0.0291,0.0291,0.0273,0.0239,0.0281,0.0241,0.0239,0.0237,0.0189,0.0182,0.0263,0.0263,0.0262,0.0262,0,0.0511,0.0524,0.0532,0.0537,0.0534,0.0542,0.0517,0.0507,0.0489,0.047,0.0443,0.0391,0.0362,0.0341,0.0319,0.029,0.0269,0.0251,0.0237,0.0239,0.0188,0.018,0.0266,0.0265,0.0265,0.0264,0,0,0.0544,0.0556,0.0559,0.0578,0.0568,0.0573,0.0569,0.0561,0.0567,0.052,0.0516,0.046,0.043,0.0408,0.0364,0.0318,0.0267,0.0285,0.0281,0.0245,0.0157,0.0139,0.0127,0.0243,0.0242,0.0241,0.0127,0,0.058,0.0617,0.0611,0.065,0.0671,0.0644,0.0647,0.0632,0.0612,0.0596,0.0525,0.0507,0.0455,0.0442,0.0385,0.0301,0.0248,0.03,0.0155,0.0151,0.0139,0.0118,0.0237,0.0121,0.0119,0.0117,0.0116,0,0.0619,0.064,0.0688,0.0717,0.0724,0.074,0.075,0.0749,0.071,0.0693,0.065,0.0595,0.0523,0.0476,0.0325,0.0362,0.0269,0.0193,0.0187,0.0149,0.0117,0.0116,0.01,0.0102,0.0103,0.0104,0.0105,0,0.0662,0.0698,0.0744,0.0753,0.0773,0.079,0.0801,0.0785,0.08,0.0759,0.0759,0.0658,0.0612,0.0479,0.0323,0.0325,0.0149,0.013,0.002,0.0017,0.0048,0.0051,0.0019,0.0019,0.002,0.002,0.002,0,0.0704,0.0743,0.0772,0.0798,0.086,0.085,0.0907,0.0895,0.089,0.0914,0.082,0.0795,0.0611,0.0487,0.0339,0.0153,0.0156,0.0021,-0.0015,0.007,0.0077,0.0041,0.0045,0.0016,0.0017,0.0017,0.0018,0,0.0744,0.0761,0.0822,0.0861,0.0886,0.093,0.0994,0.1025,0.1008,0.103,0.102,0.0898,0.0732,0.0537,0.0314,0.0184,0.0004,-0.0063,0.0044,0.0017,-0.0098,-0.0091,-0.0196,-0.0197,-0.0199,-0.02,-0.0201,0,0.0765,0.0801,0.088,0.0927,0.0954,0.1024,0.1073,0.1089,0.1126,0.1088,0.1094,0.0946,0.084,0.0512,0.0301,0.0007,-0.0036,-0.0133,-0.0121,-0.0097,-0.0122,-0.0111,-0.0102,-0.0203,-0.0203,-0.0204,-0.0204,0,0.0806,0.0838,0.0887,0.099,0.1061,0.1144,0.1213,0.1246,0.125,0.1238,0.1149,0.0966,0.0773,0.0512,0.0281,0.0071,-0.0072,-0.0148,-0.0147,-0.0137,-0.0107,-0.0128,-0.0117,-0.0209,-0.0208,-0.0208,-0.0208,0,0.084,0.0882,0.0954,0.1043,0.114,0.1223,0.126,0.1283,0.1309,0.1254,0.122,0.0998,0.0869,0.0544,0.0332,0.0121,0.0065,-0.0006,-0.0013,-0.0011,0.0073,0.0139,0.0079,0,0,0,0,0,0.0864,0.0916,0.1,0.1096,0.1193,0.1257,0.1333,0.1354,0.1358,0.1305,0.1264,0.1078,0.0739,0.0592,0.0379,0.0305,0.0032,0.0046,-0.0052,-0.0236,-0.023,-0.0166,0,0,0,0,0,0,0.0879,0.0962,0.0999,0.1123,0.1201,0.1314,0.1367,0.1373,0.134,0.1302,0.113,0.1024,0.0706,0.0871,0.0378,0.0312,0.0217,-0.0111,-0.0116,-0.0239,-0.0234,-0.0229,-0.0161,0,0,0,0,0]}]]